Owensboro, KY

11:39 PM CDT on August 21, 2017 (GMT -0500)
Owensboro-Daviess County

Weather History for KOWB - July, 2012

Change the Weather History Date:

Tuesday, July 10, 2012

  Actual Average Record
Temperature  
Mean Temperature 82 °F -  
Max Temperature 91 °F 90 °F 104 °F (1936)
Min Temperature 74 °F 69 °F 52 °F (1961)
Cooling Degree Days 18    
Growing Degree Days 32 (Base 50)    
Moisture  
Dew Point 65 °F    
Average Humidity 56    
Maximum Humidity 82    
Minimum Humidity 32    
Precipitation  
Precipitation 0.00 in - - ()
Sea Level Pressure  
Sea Level Pressure 29.98 in    
Wind  
Wind Speed 5 mph (East)    
Max Wind Speed 10 mph    
Max Gust Speed -    
Visibility 10 miles    
Events      
Averages and records for this station are not official NWS values.
T = Trace of Precipitation, MM = Missing Value Source: NWS Daily Summary

Daily Weather History Graph

Daily Weather History Graph

Search for Another Location

Airport or City:

Trip Planner

Search our weather history database for the weather conditions in past years. The results will help you decide how hot, cold, wet, or windy it might be!

Date:

Astronomy

Jul. 10, 2012 Rise Set
Actual Time 5:35 AM CDT 8:12 PM CDT
Civil Twilight 5:05 AM CDT 8:42 PM CDT
Nautical Twilight 4:26 AM CDT 9:20 PM CDT
Astronomical Twilight 3:44 AM CDT 10:03 PM CDT
Moon No Moon Rise 12:52 PM CDT (7/10)
Length of Visible Light 15h 37m
Length of Day
14h 36m
Waning Gibbous, 54% of the Moon is Illuminated
Jul 10
Waning Gibbous
Jul 10
Last Quarter
Jul 18
New
Jul 26
First Quarter
Aug 1
Full

Hourly Weather History & Observations

Time (CDT) Temp. Heat Index Dew Point Humidity Pressure Visibility Wind Dir Wind Speed Gust Speed Precip Events Conditions
12:56 AM 77.0 °F - 61.9 °F 59% 29.98 in 10.0 mi East 4.6 mph - N/A   Mostly Cloudy
1:56 AM 77.0 °F - 61.9 °F 59% 29.97 in 10.0 mi NNE 3.5 mph - N/A   Mostly Cloudy
2:56 AM 77.0 °F - 63.9 °F 64% 29.97 in 10.0 mi NE 3.5 mph - N/A   Mostly Cloudy
3:56 AM 75.9 °F - 65.8 °F 71% 29.98 in 10.0 mi NE 4.6 mph - N/A   Mostly Cloudy
4:56 AM 74.8 °F - 63.9 °F 69% 29.98 in 10.0 mi ENE 4.6 mph - N/A   Mostly Cloudy
5:56 AM 74.8 °F - 63.9 °F 69% 29.99 in 10.0 mi ENE 6.9 mph - N/A   Mostly Cloudy
6:56 AM 75.9 °F - 64.9 °F 69% 29.99 in 10.0 mi ENE 6.9 mph - N/A   Partly Cloudy
7:56 AM 79.0 °F - 63.9 °F 60% 30.00 in 10.0 mi ENE 6.9 mph - N/A   Clear
8:56 AM 81.0 °F 83.0 °F 65.8 °F 60% 30.01 in 10.0 mi East 6.9 mph - N/A   Partly Cloudy
9:56 AM 81.9 °F 83.5 °F 64.9 °F 56% 30.02 in 10.0 mi East 5.8 mph - N/A   Mostly Cloudy
10:56 AM 84.9 °F 86.6 °F 64.9 °F 51% 30.01 in 10.0 mi ENE 10.4 mph - N/A   Scattered Clouds
11:56 AM 84.9 °F 87.1 °F 65.8 °F 53% 30.01 in 10.0 mi SE 6.9 mph - N/A   Mostly Cloudy
12:56 PM 86.9 °F 88.6 °F 64.9 °F 48% 30.00 in 10.0 mi SE 9.2 mph - N/A   Mostly Cloudy
1:56 PM 90.0 °F 90.3 °F 61.9 °F 39% 29.97 in 10.0 mi East 8.1 mph - N/A   Scattered Clouds
2:56 PM 90.9 °F 91.6 °F 63.0 °F 39% 29.96 in 10.0 mi NE 8.1 mph - N/A   Partly Cloudy
3:56 PM 91.9 °F 91.8 °F 61.0 °F 35% 29.95 in 10.0 mi NNE 6.9 mph - N/A   Partly Cloudy
4:56 PM 89.6 °F 92.2 °F 66.2 °F 46% 29.97 in 10.0 mi SSE 3.5 mph - N/A   Scattered Clouds
5:56 PM 91.9 °F 90.8 °F 57.9 °F 32% 29.94 in 10.0 mi ENE 3.5 mph - N/A   Partly Cloudy
6:56 PM 90.9 °F 90.3 °F 59.9 °F 35% 29.94 in 10.0 mi ENE 5.8 mph - N/A   Partly Cloudy
7:56 PM 86.0 °F 89.7 °F 68.9 °F 56% 29.94 in 10.0 mi Calm Calm - N/A   Clear
8:56 PM 82.4 °F 85.4 °F 68.0 °F 62% 29.98 in 10.0 mi SSW 4.6 mph - N/A   Clear
9:56 PM 81.0 °F 83.3 °F 66.9 °F 62% 29.99 in 10.0 mi Calm Calm - N/A   Clear
10:56 PM 78.8 °F - 69.8 °F 74% 30.01 in 10.0 mi Calm Calm - N/A   Clear
11:56 PM 75.9 °F - 70.0 °F 82% 30.00 in 10.0 mi South 3.5 mph - N/A   Clear